Location: Vancouver
(49.2500°N, 123.1330°W)
Time: 17:43:44
(UTC-08:00)

Daily predictions for brighter satellites

Satellite Brightness Start Highest point End
(mag) Time Altitude Azimuth Time Altitude Azimuth Time Altitude Azimuth
MOS 1 4.3 17:16:53 10° SSE 17:22:30 71° ENE 17:28:11 10° NNW
Ariane Rocket 4.5 17:18:30 10° S 17:23:19 43° W 17:28:11 10° NNW
CZ-4 R/B 1.3 17:20:37 10° SSE 17:24:30 84° ENE 17:28:27 10° NNW
Cosmos 1328 Rocket 3.6 17:21:18 10° N 17:25:46 78° ENE 17:30:13 10° SSE
Cosmos 1743 Rocket 3.8 17:24:20 10° S 17:28:42 54° E 17:33:05 10° NNE
ALOS 4.0 17:27:05 10° ENE 17:28:50 12° NE 17:30:36 10° NNE
Cosmos 1151 Rocket 3.2 17:28:26 10° N 17:32:36 47° ENE 17:36:45 10° SSE
IDEFIX/ARIANE 42P 2.7 17:27:43 10° SSE 17:32:57 85° WSW 17:38:15 10° NNW
Cosmos 2333 Rocket 2.7 17:27:53 10° S 17:33:10 42° ESE 17:38:27 10° NE
Cosmos 2219 Rocket 2.4 17:28:36 10° S 17:34:03 53° ESE 17:39:32 10° NE
Cosmos 1076 Rocket 4.4 17:30:20 10° SSW 17:34:29 52° WNW 17:38:42 10° N
Aureole 2 Rocket 4.3 17:32:29 10° SE 17:35:09 18° E 17:37:58 10° NE
Cosmos 1515 Rocket 3.5 17:31:59 10° N 17:36:28 75° ENE 17:40:55 10° SSE
SJ-6B 4.3 17:34:41 10° ESE 17:37:30 18° ENE 17:40:21 10° NNE
Meteor 2-2 Rocket 4.3 17:32:26 10° NNW 17:38:06 90° ENE 17:43:46 10° S
Cosmos 1455 3.9 17:36:08 10° NNE 17:38:11 14° ENE 17:40:15 10° E
Cosmos 2322 Rocket 4.0 17:34:56 10° W 17:39:30 24° NW 17:44:04 10° NNE
Cosmos 2278 Rocket 2.2 17:35:18 10° NNW 17:41:02 83° ENE 17:46:43 10° SSE
Cosmos 1674 2.8 17:37:30 10° SSW 17:41:21 80° W 17:45:14 10° N
Cosmos 1726 2.2 17:38:07 10° N 17:41:51 55° ENE 17:45:33 10° SSE
Cosmos 371 Rocket 3.5 17:37:20 10° S 17:42:00 54° ESE 17:46:42 10° NNE
Meteor 1-21 Rocket 4.5 17:36:07 10° SSW 17:42:01 82° WNW 17:47:53 10° N
Cosmos 1908 4.4 17:38:18 10° NNW 17:42:04 48° W 17:45:49 10° S
SKYMED 2 4.5 17:39:49 10° NE 17:43:38 29° E 17:47:25 10° SSE
Lacrosse 4 Rocket 2.7 17:42:48 10° N 17:45:52 20° NE 17:48:34 12° E
SMAP 3.4 17:41:39 10° S 17:46:17 73° WSW 17:50:58 10° NNW
Cosmos 1763 Rocket 3.7 17:44:30 10° SSW 17:49:43 76° WNW 17:54:54 10° NNE
Cosmos 372 Rocket 3.9 17:45:11 10° NNW 17:50:19 74° ENE 17:55:24 10° SSE
FREGAT/IRIS 4.2 17:52:12 10° ESE 17:54:16 17° ENE 17:56:20 10° NNE
Cosmos 1500 Rocket 3.5 17:50:10 10° S 17:54:29 71° E 17:58:51 10° NNE
Abrixas 4.5 17:55:08 10° SSW 17:57:10 17° SSE 17:58:45 12° ESE
Cosmos 1300 2.6 17:54:16 10° N 17:58:08 82° E 18:01:58 10° SSE
Meteor 1-27 4.3 17:53:08 10° N 17:58:56 65° ENE 18:04:44 10° SSE
Cosmos 2084 3.2 17:55:12 10° SSW 17:59:02 66° SE 18:02:06 15° NE
Cosmos 540 Rocket 3.6 17:56:11 10° S 18:01:12 54° ESE 18:06:15 10° NNE
Cosmos 44 Rocket 3.4 17:58:11 10° SSW 18:03:18 79° SE 18:07:57 12° NE
Cosmos 1340 Rocket 3.5 18:00:32 10° SSE 18:04:04 32° E 18:07:36 10° NNE
Sich 1 4.3 18:01:38 10° SE 18:04:53 20° E 18:06:47 16° NE
SL-14 R/B 3.3 18:01:04 10° S 18:04:55 57° E 18:08:53 10° NNE
Cosmos 1484 Rocket 2.9 18:04:13 10° SSE 18:08:11 86° WSW 18:12:13 10° NNW
Cosmos 1461 4.3 18:05:53 10° SSE 18:08:59 20° ESE 18:10:07 18° E
Cosmos 2058 3.1 18:05:13 10° SSE 18:09:10 48° E 18:13:09 10° NNE
Cosmos 2237 Rocket 2.2 18:03:51 10° SSW 18:09:22 62° ESE 18:14:58 10° NE
Cosmos 2369 Rocket 3.6 18:05:26 10° N 18:09:27 19° NE 18:11:17 17° ENE
ATLAS 3B R/B 4.1 18:06:30 10° WNW 18:12:20 25° N 18:17:08 13° NE
Cosmos 1633 Rocket 4.3 18:09:07 10° SE 18:12:26 21° E 18:13:19 20° ENE
COSMOS 2428 3.5 18:09:07 10° SW 18:14:41 51° NW 18:20:15 10° NNE
Cosmos 1869 4.5 18:12:09 10° NNE 18:15:24 22° ENE 18:15:53 22° E
NOSS 0 Rocket 3.9 18:09:43 10° SSW 18:15:56 78° ESE 18:22:11 10° NNE
SL-16 R/B 2.9 18:11:34 10° SSE 18:16:32 33° ESE 18:19:54 18° NE
USA 215 3.3 18:10:52 10° ESE 18:17:27 89° NNE 18:24:03 10° WNW
Cosmos 1634 Rocket 4.5 18:12:44 10° NNW 18:18:52 63° W 18:24:56 10° S
Cosmos 304 Rocket 4.2 18:16:07 10° S 18:20:35 40° ESE 18:23:39 18° NE
Orbus 7S? 3.9 18:19:13 10° NW 18:22:42 64° NNE 18:29:24 12° ESE
Meteor 1-28 Rocket 3.4 18:19:44 12° NNE 18:23:00 47° E 18:26:36 10° S
Cosmos 2297 3.7 18:18:03 10° NNW 18:23:48 86° ENE 18:29:32 10° SSE
Lacrosse 5 2.9 18:21:56 10° WNW 18:26:35 35° N 18:29:19 21° NE
Cosmos 783 Rocket 4.5 18:21:26 10° S 18:26:42 68° ESE 18:31:49 11° NNE
Cosmos 1356 Rocket 3.9 18:27:07 10° SSE 18:30:45 35° E 18:31:41 31° ENE
COSMO-SKYMED 1 2.5 18:27:29 10° NNE 18:31:52 85° ESE 18:36:13 10° SSW
Cosmos 1707 Rocket 3.4 18:27:33 10° N 18:31:53 64° ENE 18:36:11 10° SSE
Cosmos 1900 4.4 18:27:33 10° NW 18:32:31 80° SW 18:37:31 10° SSE
Meteor 2-10 4.4 18:32:19 10° NNW 18:37:21 65° W 18:42:30 10° S
DMSP B5D1-3 4.4 18:34:23 10° NNE 18:39:29 72° ESE 18:44:34 10° S
Lacrosse 5 rocket 3.4 18:36:46 10° WNW 18:39:55 25° SW 18:43:12 10° S
Thor Agena Rocket 4.5 18:37:56 10° N 18:43:01 49° WNW 18:47:59 10° SW
Resurs 01 Rocket 1.9 18:41:21 17° SE 18:44:27 44° ENE 18:48:41 10° N
Aureole 1 Rocket 4.5 18:40:18 10° SSE 18:45:25 36° E 18:48:31 25° NE
CZ-4C R/B 3.8 18:40:20 10° NW 18:45:44 27° NNE 18:48:11 22° NE
Spot 2 Rocket 3.6 18:41:23 10° SE 18:46:12 48° ENE 18:51:04 10° N
Cosmos 1666 Rocket 3.6 18:42:22 10° S 18:46:36 52° E 18:48:44 27° NNE
Resurs 1-3 4.0 18:49:09 40° ENE 18:49:10 40° ENE 18:53:18 10° N
Cosmos 2151 4.0 18:47:59 10° SSW 18:52:01 45° WNW 18:56:05 10° N
FENGYUN 3A 3.6 18:47:37 10° SSE 18:52:51 58° ENE 18:58:09 10° N
Cosmos 2360 Rocket 4.4 18:50:11 10° W 18:54:03 19° NW 18:57:56 10° N
CENTAUR R/B 3.5 18:49:13 10° WSW 18:55:21 44° NNW 19:00:37 17° NNE
Cosmos 2084 Rocket 4.4 18:53:07 10° NNW 18:55:45 28° N 18:55:45 28° N
Cosmos 1980 4.2 18:52:08 10° SW 18:57:44 59° WNW 19:02:34 14° NNE
METEOR-M 4.3 18:52:28 10° S 18:57:49 76° WSW 19:03:12 10° NNW
USA 229 DEB 4.2 18:52:37 10° S 18:58:41 35° ESE 18:59:44 33° E
USA 229 4.2 18:52:44 10° S 18:58:48 35° ESE 18:59:46 33° E
Cosmos 1538 Rocket 4.0 18:54:10 10° S 18:59:23 61° ESE 19:01:35 34° NE
Iridium 4 Rocket 3.9 18:56:52 10° SSE 18:59:35 33° SE 18:59:35 33° SE
Cosmos 44 3.8 18:58:03 10° SW 19:03:11 60° NW 19:05:41 28° NNE
ATLAS 5 CENTAUR R/B 3.2 18:59:31 10° NNW 19:04:26 29° NNE 19:04:58 29° NE
ALOS 2.1 19:00:49 10° SSE 19:05:28 73° ENE 19:10:09 10° N
Cosmos 1626 2.0 19:01:58 10° S 19:05:43 86° W 19:06:22 59° N
TIMED 4.4 19:02:38 10° NNW 19:07:03 82° ENE 19:08:22 45° SSE
Cosmos 1867 4.3 19:02:51 10° NNW 19:07:50 34° NE 19:07:50 34° NE
Aureole 2 Rocket 3.7 19:06:30 10° SW 19:10:15 47° WNW 19:12:13 26° N
SJ-6B 3.6 19:07:46 10° S 19:11:48 55° W 19:15:54 10° NNW
FengYun 1-2 T 4.1 19:07:01 10° SSE 19:12:35 86° ENE 19:18:09 10° NNW
Cosmos 2242 Rocket 3.4 19:09:12 10° N 19:13:39 89° ESE 19:18:05 10° S
Cosmos 1455 2.8 19:10:33 10° NNW 19:14:17 56° W 19:18:01 10° S
Cosmos 1703 4.0 19:11:50 10° SSW 19:15:38 52° WNW 19:17:55 22° N
Cosmos 2333 Rocket 3.4 19:12:12 10° WSW 19:17:29 39° NW 19:21:55 14° NNE
Cosmos 2219 Rocket 3.7 19:13:16 10° WSW 19:18:17 32° NW 19:22:52 12° NNE
Cosmos 1943 Rocket 3.5 19:17:49 10° NNW 19:20:55 24° NNE 19:20:55 24° NNE
Lacrosse 4 Rocket 1.6 19:20:57 10° NW 19:24:58 66° WSW 19:24:58 66° WSW
Nadezhda 4 Rocket 4.2 19:25:32 10° SSW 19:31:47 73° W 19:38:09 10° N
Cosmos 773 Rocket 3.9 19:35:02 10° SSW 19:39:45 75° SSW 19:39:45 75° SSW
Sich 1 4.0 19:37:59 10° SSW 19:42:16 47° WNW 19:43:52 32° NNW
Cosmos 1461 4.1 19:43:45 10° SW 19:46:37 39° WSW 19:46:37 39° WSW
Cosmos 1633 Rocket 4.1 19:45:44 10° SSW 19:49:57 44° WNW 19:50:30 42° NW
Cosmos 1092 Rocket 4.2 19:45:59 10° SSW 19:52:18 71° WNW 19:58:40 10° N
Cosmos 2237 Rocket 3.8 19:48:58 10° WSW 19:53:51 29° NW 19:56:56 18° N
Cosmos 2369 Rocket 2.6 19:48:48 10° NNW 19:53:07 52° N 19:53:07 52° N
SL-16 R/B 3.0 19:55:01 10° SW 20:00:28 48° NW 20:01:50 40° NNW
ATLAS 3B R/B 3.8 19:58:55 10° NW 20:04:24 32° N 20:04:24 32° N
Lacrosse 5 3.4 20:05:38 10° NW 20:08:32 30° NNW 20:08:32 30° NNW
Resurs 01 Rocket 3.8 20:18:54 16° SW 20:21:07 23° W 20:24:42 10° NW
CZ-4C R/B 3.6 20:29:01 10° NW 20:33:23 40° NNW 20:33:23 40° NNW
CENTAUR R/B 4.2 20:42:13 10° WNW 20:47:49 27° N 20:47:49 27° N
USA 229 DEB 4.5 20:42:27 10° SW 20:47:13 46° WSW 20:47:13 46° WSW
ATLAS 5 CENTAUR R/B 4.0 20:44:02 10° NW 20:46:32 27° NW 20:46:32 27° NW
